Starlink 32491

operational
NORAD ID: 62043 Int'l Des: 2024-216 Owner: SPXS Country: US Constellation: starlink
LEOCIRCULAR

Starlink 32491について

説明を読み込み中...

リアルタイム位置

3D地球を読み込み中...

次回通過

高度履歴

Altitude vs Time

uPlot chart will show altitude changes over time

軌道要素

1 62043U 24216M 25260.11813445 .00020621 00000-0 75759-3 0 9999
2 62043 43.0002 164.0449 0000795 338.7202 21.3616 15.27545286 47241
Epoch: Sep 17, 2025 • Age: 8 hours

現在のステータス

高度 485.8 km
速度 7.63 km/s
衛星直下点 39.50°N, 116.39°E
打ち上げ日 Nov 21, 2024
運用期間 0.8 years
タイプ internet

技術仕様

分類 Payload
質量 730.00 kg
乾燥質量 700.00 kg
総質量 730.00 kg
長さ 0.30 m
直径 4.10 m
スパン 29.00 m
形状 Box + pan
製造者 SPXS
バスタイプ Starlink V2M
フェーズステータス In Orbit
所有者/国 SPXS/US

大規模コンステレーション

Loading constellations...